DW9936 Weather Reports


time (UTC)temp
C
wind
direction
speed
KPH
gust
KPH
rain 1hr
cm
rain 24hr
cm
rain mn
cm
humidity
%
barometer
mb
20260510063042 13 237 0.0 3.2 0.00 0.00 0.00 64 1016.4
20260510061542 13 313 0.0 3.2 0.00 0.00 0.00 66 1016.5
20260510060032 12 167 0.0 3.2 0.00 0.00 0.00 68 1016.6
20260510054521 12 326 0.0 1.6 0.00 0.00 0.00 71 1016.7
20260510053017 11 324 0.0 1.6 0.00 0.00 0.00 74 1016.9
20260510051512 10 324 0.0 0.0 0.00 0.00 0.00 78 1016.7
20260510050008 8 324 0.0 0.0 0.00 0.00 0.00 83 1016.9
20260510044507 7 324 0.0 0.0 0.00 0.00 0.00 83 1017.0
20260510043002 7 315 0.0 0.0 0.00 0.00 0.00 83 1017.1
20260510041611 7 315 0.0 3.2 0.00 0.00 0.00 83 1017.1
20260510040059 7 315 0.0 0.0 0.00 0.00 0.00 82 1017.2
20260510034604 7 315 0.0 0.0 0.00 0.00 0.00 81 1017.1
20260510033057 7 315 0.0 1.6 0.00 0.00 0.00 81 1017.1
20260510031603 7 315 0.0 3.2 0.00 0.00 0.00 82 1017.2
20260510024554 7 310 0.0 0.0 0.00 0.00 0.00 82 1017.3
20260510023050 7 311 0.0 0.0 0.00 0.00 0.00 82 1017.2
20260510021550 7 311 0.0 0.0 0.00 0.00 0.00 82 1017.4
20260510020049 7 311 0.0 0.0 0.00 0.00 0.00 82 1017.3
20260510014547 7 311 0.0 0.0 0.00 0.00 0.00 80 1017.3
20260510013051 7 311 0.0 0.0 0.00 0.00 0.00 80 1017.4
20260510011545 8 311 0.0 0.0 0.00 0.00 0.00 79 1017.4
20260510010041 8 310 0.0 1.6 0.00 0.00 0.00 79 1017.5
20260510004540 8 347 0.0 0.0 0.00 0.00 0.00 79 1017.5
20260510003051 8 347 0.0 1.6 0.00 0.00 0.00 78 1017.6
20260510001536 8 348 0.0 1.6 0.00 0.00 0.00 77 1017.7
20260510000034 8 348 0.0 1.6 0.00 0.00 0.00 77 1017.9
20260509234548 8 107 0.0 0.0 0.00 0.00 0.00 76 1018.1
20260509233040 8 107 0.0 0.0 0.00 0.00 0.00 76 1018.5
20260509231529 9 107 0.0 0.0 0.00 0.00 0.00 75 1018.5
20260509230022 9 107 0.0 0.0 0.00 0.00 0.00 75 1018.7
20260509224520 10 107 0.0 0.0 0.00 0.00 0.00 73 1018.9
20260509223018 10 107 0.0 0.0 0.00 0.00 0.00 72 1018.9
20260509221516 10 107 0.0 0.0 0.00 0.00 0.00 71 1018.9
20260509220018 11 107 0.0 0.0 0.00 0.00 0.00 70 1018.9
20260509214510 11 107 0.0 0.0 0.00 0.00 0.00 70 1018.9
20260509213010 11 108 0.0 0.0 0.00 0.00 0.00 69 1018.9
20260509211509 11 108 0.0 0.0 0.00 0.00 0.00 68 1018.8
20260509210008 12 108 0.0 0.0 0.00 0.00 0.00 67 1018.8
20260509204508 12 107 0.0 0.0 0.00 0.00 0.00 66 1018.7
20260509203008 13 107 0.0 0.0 0.00 0.00 0.00 65 1018.6
20260509201509 13 107 0.0 0.0 0.00 0.00 0.00 63 1018.5
20260509200006 14 107 0.0 0.0 0.00 0.00 0.00 61 1018.2
20260509194509 15 108 0.0 0.0 0.00 0.00 0.00 60 1018.1
20260509193006 15 111 0.0 3.2 0.00 0.00 0.00 59 1017.9
20260509191506 15 107 0.0 3.2 0.00 0.00 0.00 58 1017.8
20260509190007 16 68 0.0 3.2 0.00 0.00 0.00 58 1017.5
20260509184513 16 76 0.0 0.0 0.00 0.00 0.00 56 1017.3
20260509183005 17 76 0.0 0.0 0.00 0.00 0.00 54 1016.9
20260509181504 18 78 0.0 1.6 0.00 0.00 0.00 52 1016.8
20260509180003 18 155 0.0 4.8 0.00 0.00 0.00 51 1016.8
20260509174503 19 134 0.0 4.8 0.00 0.00 0.00 49 1016.8
20260509173002 19 103 0.0 4.8 0.00 0.00 0.00 48 1016.7
20260509171501 19 78 0.0 1.6 0.00 0.00 0.00 48 1016.7
20260509170002 20 76 0.0 11.3 0.00 0.00 0.00 47 1016.7
20260509164502 20 131 0.0 8.0 0.00 0.00 0.00 46 1016.5
20260509163106 20 96 0.0 8.0 0.00 0.00 0.00 46 1016.4
20260509161600 20 101 0.0 3.2 0.00 0.00 0.00 45 1016.5
20260509160058 20 114 1.6 6.4 0.00 0.00 0.00 45 1016.7
20260509154608 21 132 0.0 6.4 0.00 0.00 0.00 44 1016.7
20260509153058 21 67 1.6 6.4 0.00 0.00 0.00 43 1016.7
20260509151556 21 243 1.6 8.0 0.00 0.00 0.00 42 1016.8
20260509150108 21 106 0.0 4.8 0.00 0.00 0.00 44 1016.9
20260509144600 20 240 0.0 4.8 0.00 0.00 0.00 46 1016.9
20260509143056 20 172 0.0 9.7 0.00 0.00 0.00 45 1017.0
20260509141553 20 108 1.6 9.7 0.00 0.00 0.00 45 1016.9
20260509140058 20 113 0.0 6.4 0.00 0.00 0.00 44 1017.0
20260509134552 20 67 0.0 8.0 0.00 0.00 0.00 46 1017.1
20260509133059 20 188 0.0 9.7 0.00 0.00 0.00 45 1017.0
20260509131549 20 114 0.0 6.4 0.00 0.00 0.00 45 1017.2
20260509130054 21 125 1.6 6.4 0.00 0.00 0.00 44 1017.2
20260509124554 21 74 1.6 6.4 0.00 0.00 0.00 44 1017.2
20260509123050 21 350 0.0 9.7 0.00 0.00 0.00 43 1017.3
20260509121556 21 159 0.0 11.3 0.00 0.00 0.00 45 1017.4
20260509120044 21 88 1.6 9.7 0.00 0.00 0.00 45 1017.5
20260509114555 21 234 0.0 9.7 0.00 0.00 0.00 46 1017.7
20260509113039 21 68 0.0 6.4 0.00 0.00 0.00 49 1017.8
20260509111536 20 51 0.0 4.8 0.00 0.00 0.00 50 1018.1
20260509110134 21 321 0.0 6.4 0.00 0.00 0.00 48 1018.3
20260509104530 20 89 0.0 6.4 0.00 0.00 0.00 49 1018.5
20260509103028 20 143 1.6 4.8 0.00 0.00 0.00 48 1018.6
20260509101525 19 118 3.2 11.3 0.00 0.00 0.00 51 1018.8
20260509100021 19 173 0.0 9.7 0.00 0.00 0.00 52 1018.9
20260509094523 18 138 1.6 11.3 0.00 0.00 0.00 53 1018.9
20260509093016 18 138 1.6 9.7 0.00 0.00 0.00 52 1019.0
20260509091513 17 232 0.0 8.0 0.00 0.00 0.00 53 1019.1
20260509090026 17 170 3.2 8.0 0.00 0.00 0.00 56 1019.1
20260509084507 17 96 0.0 4.8 0.00 0.00 0.00 58 1019.2
20260509083009 17 96 1.6 4.8 0.00 0.00 0.00 59 1019.3
20260509081502 16 90 0.0 8.0 0.00 0.00 0.00 61 1019.4
20260509080111 16 59 0.0 4.8 0.00 0.00 0.00 61 1019.4
20260509074555 16 104 0.0 4.8 0.00 0.00 0.00 62 1019.6
20260509073105 15 156 0.0 4.8 0.00 0.00 0.00 64 1019.7
20260509071549 15 78 0.0 6.4 0.00 0.00 0.00 66 1019.8
20260509070049 15 148 0.0 4.8 0.00 0.00 0.00 69 1019.8
20260509064541 14 28 0.0 0.0 0.00 0.00 0.00 69 1019.8